Location: ?? ????
(36.1339°N, 43.5008°E)
Time: 02:47:46
(UTC+00:00)

Daily predictions for brighter satellites

Satellite Brightness Start Highest point End
(mag) Time Altitude Azimuth Time Altitude Azimuth Time Altitude Azimuth
Lacrosse 5 rocket 4.3 00:11:32 10° N 00:13:51 14° NNE 00:16:13 10° ENE
Hubble Space Telescope 3.5 00:19:13 12° ESE 00:19:13 12° ESE 00:19:42 10° ESE
H-II Stage 2 4.4 00:18:40 16° SE 00:18:40 16° SE 00:20:34 10° ESE
Cosmos 1943 Rocket 2.4 00:21:36 61° N 00:21:36 61° N 00:26:10 10° NNE
Meteor 1-25 Rocket 4.3 00:15:32 10° N 00:20:51 75° NNE 00:20:51 75° NNE
Meteor 1-14 Rocket 4.5 00:21:13 10° N 00:26:43 64° E 00:30:27 21° SSE
Cosmos 44 4.1 00:26:43 44° SE 00:27:07 45° ESE 00:31:49 10° NE
Cosmos 2263 4.1 00:30:15 73° SSE 00:30:40 77° ESE 00:36:17 10° NNE
Iridium 4 Rocket 4.2 00:33:06 25° SE 00:35:28 44° E 00:39:41 10° NNE
Unknown 4.5 00:42:10 45° NNE 00:42:10 45° NNE 00:45:16 10° NE
SL-24 DEB 4.5 00:42:01 39° SSE 00:43:38 68° E 00:48:18 10° N
CENTAUR R/B 2.3 00:43:55 62° WSW 00:44:44 71° WNW 00:51:26 10° NNE
Unknown 4.5 00:45:39 42° N 00:45:39 42° N 00:48:49 10° NE
Unknown 4.4 00:45:59 45° N 00:45:59 45° N 00:49:11 10° NE
Unknown 4.3 00:48:35 46° N 00:48:35 46° N 00:51:54 10° NE
ADEOS 3.5 00:42:53 10° NNE 00:48:07 81° ESE 00:49:53 43° S
Cosmos 1461 4.3 00:46:33 10° NNW 00:50:22 37° ENE 00:54:15 10° SE
Unknown 4.3 00:51:46 46° N 00:51:46 46° N 00:55:11 10° NE
Unknown 4.3 00:53:22 45° NNW 00:53:22 45° NNW 00:56:51 10° NE
Unknown 4.3 00:54:58 45° NNW 00:54:58 45° NNW 00:58:30 10° NE
Cosmos 1862 Rocket 4.4 00:52:56 17° SSE 00:56:08 51° E 01:00:29 10° NNE
Unknown 4.3 00:56:33 44° NNW 00:56:33 44° NNW 01:00:09 10° NE
Atlas Centaur 2 3.0 00:56:52 42° SW 00:59:01 56° S 01:06:56 10° ESE
Unknown 4.3 01:02:57 40° NNW 01:02:57 40° NNW 01:06:45 10° NNE
Unknown 4.3 01:04:33 39° NW 01:04:33 39° NW 01:08:24 10° NNE
Meteor 2-6 Rocket 4.2 01:02:18 24° SSW 01:05:53 80° W 01:11:50 10° N
Unknown 4.4 01:06:09 38° NW 01:06:10 38° NW 01:10:04 10° NNE
Meteor 1-27 Rocket 4.5 01:01:36 10° S 01:07:21 55° E 01:13:02 10° NNE
Unknown 4.4 01:07:44 37° NW 01:07:50 37° NW 01:11:42 10° NNE
Unknown 4.4 01:09:20 35° NW 01:09:30 36° NW 01:13:20 10° NNE
Cosmos 2369 Rocket 2.9 01:09:23 34° WNW 01:09:59 35° WNW 01:15:10 10° N
Meteor 1-10 Rocket 4.2 01:08:52 17° SSW 01:13:30 78° W 01:19:27 10° N
ASTRO E2 4.2 01:13:09 22° S 01:13:48 23° SSE 01:17:02 10° ESE
Cosmos 2344 4.5 01:13:36 25° WNW 01:16:23 31° NW 01:23:25 10° NNE
Aureole 2 Rocket 3.6 01:15:12 20° SSE 01:16:26 30° ESE 01:18:52 10° NE
Cosmos 1092 Rocket 4.1 01:13:50 29° SW 01:16:41 50° W 01:22:39 10° N
OAO 1 Rocket 4.4 01:16:20 38° W 01:18:26 81° S 01:23:47 10° E
CZ-2C R/B 3.0 01:16:13 10° NNE 01:21:03 58° E 01:26:01 10° S
SeaSat 1 2.9 01:17:19 10° N 01:21:58 42° WNW 01:23:31 33° WSW
Cosmos 1656 Rocket 3.7 01:19:17 26° SW 01:22:33 67° WNW 01:28:13 10° NNE
Meteor 1-11 Rocket 4.1 01:18:33 10° N 01:24:07 64° E 01:29:34 10° SSE
PAYLOAD A 3.8 01:20:24 10° NNE 01:25:11 82° ESE 01:29:51 10° S
H-2A R/B 2.4 01:21:32 10° N 01:25:16 52° WNW 01:26:24 37° SW
SL-4 R/B 4.4 01:23:17 10° NNW 01:25:26 15° NNE 01:27:39 10° ENE
Cosmos 1125 Rocket 3.8 01:23:32 10° NNW 01:28:30 41° WSW 01:33:25 10° S
IDEFIX/ARIANE 42P 2.8 01:23:59 10° N 01:29:01 47° WNW 01:32:17 21° SW
GPS 2-04 Rocket1 3.5 01:29:05 31° SW 01:29:47 34° SSW 01:33:27 10° SE
Cosmos 1315 Rocket 2.9 01:26:49 10° S 01:30:55 79° E 01:35:03 10° N
Sakura Rocket 4.5 01:28:53 23° SW 01:31:10 34° SSE 01:36:41 10° ESE
Lacrosse 5 4.5 01:28:39 10° N 01:31:34 15° NNE 01:34:30 10° ENE
Cosmos 44 Rocket 4.4 01:29:43 10° S 01:34:33 46° ESE 01:39:19 10° NE
USA 215 3.4 01:28:36 10° NE 01:35:00 59° NW 01:39:35 20° WSW
USA 81 4.1 01:32:11 10° SSW 01:37:22 58° W 01:42:35 10° N
Cosmos 1733 Rocket 3.2 01:38:22 10° NNW 01:42:42 51° W 01:47:00 10° SSW
Cosmos 1500 3.1 01:39:22 10° N 01:43:08 88° E 01:46:53 10° S
COSMOS 2487 2.7 01:46:12 10° NNW 01:49:29 41° WSW 01:52:45 10° S
ATLAS 3B R/B 3.7 01:48:16 16° W 01:52:00 26° NW 01:57:26 10° N
Cosmos 1400 Rocket 4.2 01:51:29 18° W 01:52:03 19° WNW 01:54:52 10° NNW
Lacrosse 5 rocket 1.5 01:49:13 10° NW 01:53:32 88° NE 01:58:03 10° SE
Cosmos 1812 3.2 01:50:55 10° SSW 01:54:32 39° W 01:58:10 10° N
Cosmos 773 Rocket 4.0 01:50:25 10° SSW 01:55:31 57° WNW 02:00:37 10° N
CZ-3 R/B 3.7 01:25:08 12° W 01:57:00 54° SSW 02:05:32 10° SE
Hubble Space Telescope 2.1 01:54:34 15° SW 01:57:10 28° S 02:00:43 10° ESE
MSX 4.3 01:54:54 10° N 02:00:13 40° WNW 02:05:31 10° SW
Chunghua 1 4.5 01:59:11 16° W 02:01:59 73° S 02:05:41 10° E
ISS -1.7 02:02:22 12° SW 02:02:22 12° SW 02:03:46 10° SSW
Cosmos 1943 Rocket 4.1 02:04:03 10° WNW 02:05:14 11° NW 02:06:26 10° NW
Cosmos 1553 Rocket 4.0 01:59:40 10° NNW 02:05:50 61° W 02:11:51 10° S
PSLV R/B 3.8 02:02:47 10° N 02:06:50 80° WNW 02:10:45 10° SSW
Timation 2 Rocket 3.8 02:06:21 10° NNW 02:12:21 71° WSW 02:18:16 10° SSE
Cosmos 1782 Rocket 4.0 02:08:43 10° N 02:13:04 67° E 02:17:26 10° SSE
Cosmos 2242 Rocket 4.5 02:10:45 10° SW 02:14:43 29° WNW 02:18:42 10° NNW
Sich 1 Rocket 4.5 02:10:24 10° N 02:14:46 56° E 02:19:09 10° SSE
Meteor 1-31 Rocket 3.5 02:12:40 10° N 02:16:11 32° WNW 02:19:39 10° SW
Cosmos 1536 3.1 02:13:02 10° NNW 02:16:50 45° W 02:20:37 10° SSW
CZ-4B R/B 3.8 02:13:38 10° N 02:17:46 36° WNW 02:21:52 10° SW
Cosmos 1538 Rocket 4.4 02:16:16 10° SW 02:21:09 42° WNW 02:26:04 10° N
CZ-3B R/B 2.6 02:20:10 10° SSW 02:21:12 11° S 02:22:26 10° SSE
Cosmos 1703 Rocket 3.9 02:17:03 10° SSW 02:21:20 47° W 02:25:38 10° N
Cosmos 1655 Rocket 4.4 02:18:25 10° SSW 02:24:15 42° WNW 02:30:09 10° N
